Time,TemperatureF,DewpointF,PressureIn,WindDirection,WindDirectionDegrees,WindSpeedMPH,WindSpeedGustMPH,Humidity,HourlyPrecipIn,Conditions,Clouds,dailyrainin,SoftwareType,DateUTC
2013-10-07 00:00:00,52.0,19.9,30.40,West,270,0.0,0.0,28,0.00,,---,0.00,VWS V14.01,2013-10-07 06:00:00,
2013-10-07 00:10:00,52.0,19.9,30.40,West,270,0.0,0.0,28,0.00,,---,0.00,VWS V14.01,2013-10-07 06:10:00,
2013-10-07 00:20:00,52.0,19.1,30.40,WNW,292,0.0,0.0,27,0.00,,---,0.00,VWS V14.01,2013-10-07 06:20:00,
2013-10-07 00:30:00,52.0,19.1,30.39,North,360,0.0,0.0,27,0.00,,---,0.00,VWS V14.01,2013-10-07 06:30:00,
2013-10-07 00:40:00,52.0,19.1,30.39,WNW,292,0.0,0.0,27,0.00,,---,0.00,VWS V14.01,2013-10-07 06:40:00,
2013-10-07 00:50:00,52.0,19.9,30.39,West,270,0.0,0.0,28,0.00,,---,0.00,VWS V14.01,2013-10-07 06:50:00,
2013-10-07 01:00:00,51.0,18.2,30.39,WNW,292,0.0,0.0,27,0.00,,---,0.00,VWS V14.01,2013-10-07 07:00:00,
2013-10-07 01:10:00,50.0,18.2,30.39,WNW,292,0.0,0.0,28,0.00,,---,0.00,VWS V14.01,2013-10-07 07:10:00,
2013-10-07 01:20:00,50.0,18.2,30.39,WNW,292,0.0,0.0,28,0.00,,---,0.00,VWS V14.01,2013-10-07 07:20:00,
2013-10-07 01:30:00,49.0,18.1,30.39,WNW,292,0.0,0.0,29,0.00,,---,0.00,VWS V14.01,2013-10-07 07:30:00,
2013-10-07 01:40:00,49.0,18.1,30.40,WNW,292,0.0,0.0,29,0.00,,---,0.00,VWS V14.01,2013-10-07 07:40:00,
2013-10-07 01:50:00,48.0,18.1,30.41,NW,315,0.0,0.0,30,0.00,,---,0.00,VWS V14.01,2013-10-07 07:50:00,
2013-10-07 02:00:00,49.0,18.9,30.41,NW,315,0.0,0.0,30,0.00,,---,0.00,VWS V14.01,2013-10-07 08:00:00,
2013-10-07 02:10:00,49.0,18.9,30.41,North,360,0.0,0.0,30,0.00,,---,0.00,VWS V14.01,2013-10-07 08:10:00,
2013-10-07 02:20:00,48.0,18.1,30.41,NNW,337,0.0,0.0,30,0.00,,---,0.00,VWS V14.01,2013-10-07 08:20:00,
2013-10-07 02:30:00,48.0,18.8,30.41,North,360,0.0,0.0,31,0.00,,---,0.00,VWS V14.01,2013-10-07 08:30:00,
2013-10-07 02:40:00,47.0,18.7,30.41,North,360,0.0,0.0,32,0.00,,---,0.00,VWS V14.01,2013-10-07 08:40:00,
2013-10-07 02:50:00,47.0,18.7,30.41,SE,135,0.0,0.0,32,0.00,,---,0.00,VWS V14.01,2013-10-07 08:50:00,
2013-10-07 03:00:00,46.0,18.5,30.41,NNW,337,0.0,0.0,33,0.00,,---,0.00,VWS V14.01,2013-10-07 09:00:00,
2013-10-07 03:10:00,47.0,19.4,30.41,NNW,337,0.0,0.0,33,0.00,,---,0.00,VWS V14.01,2013-10-07 09:10:00,
2013-10-07 03:30:00,47.0,18.7,30.40,NNW,337,0.0,0.0,32,0.00,,---,0.00,VWS V14.01,2013-10-07 09:30:00,
2013-10-07 03:40:00,46.0,18.5,30.40,NNW,337,0.0,0.0,33,0.00,,---,0.00,VWS V14.01,2013-10-07 09:40:00,
2013-10-07 03:50:00,45.0,18.3,30.40,North,360,0.0,0.0,34,0.00,,---,0.00,VWS V14.01,2013-10-07 09:50:00,
2013-10-07 04:00:00,45.0,18.3,30.40,North,360,0.0,0.0,34,0.00,,---,0.00,VWS V14.01,2013-10-07 10:00:00,
2013-10-07 04:10:00,45.0,19.0,30.40,WNW,292,0.0,0.0,35,0.00,,---,0.00,VWS V14.01,2013-10-07 10:10:00,
2013-10-07 04:20:00,43.0,18.5,30.40,West,270,0.0,0.0,37,0.00,,---,0.00,VWS V14.01,2013-10-07 10:20:00,
2013-10-07 04:30:00,42.0,18.9,30.41,West,270,0.0,0.0,39,0.00,,---,0.00,VWS V14.01,2013-10-07 10:30:00,
2013-10-07 04:40:00,42.0,19.5,30.41,WNW,292,0.0,0.0,40,0.00,,---,0.00,VWS V14.01,2013-10-07 10:40:00,
2013-10-07 04:50:00,43.0,19.8,30.42,WNW,292,0.0,0.0,39,0.00,,---,0.00,VWS V14.01,2013-10-07 10:50:00,
2013-10-07 05:00:00,43.0,18.5,30.41,North,360,0.0,0.0,37,0.00,,---,0.00,VWS V14.01,2013-10-07 11:00:00,
2013-10-07 05:10:00,45.0,19.7,30.41,WNW,292,0.0,0.0,36,0.00,,---,0.00,VWS V14.01,2013-10-07 11:10:00,
2013-10-07 05:20:00,43.0,19.8,30.41,West,270,4.0,6.0,39,0.00,,---,0.00,VWS V14.01,2013-10-07 11:20:00,
2013-10-07 05:30:00,42.0,19.5,30.41,WNW,292,0.0,4.0,40,0.00,,---,0.00,VWS V14.01,2013-10-07 11:30:00,
2013-10-07 05:40:00,42.0,19.5,30.41,West,270,0.0,3.0,40,0.00,,---,0.00,VWS V14.01,2013-10-07 11:40:00,
2013-10-07 05:50:00,43.0,18.5,30.41,NNW,337,0.0,0.0,37,0.00,,---,0.00,VWS V14.01,2013-10-07 11:50:00,
2013-10-07 06:00:00,43.0,18.5,30.41,NW,315,0.0,0.0,37,0.00,,---,0.00,VWS V14.01,2013-10-07 12:00:00,
2013-10-07 06:10:00,43.0,17.9,30.41,NW,315,0.0,0.0,36,0.00,,---,0.00,VWS V14.01,2013-10-07 12:10:00,
2013-10-07 06:20:00,43.0,17.9,30.41,WNW,292,0.0,0.0,36,0.00,,---,0.00,VWS V14.01,2013-10-07 12:20:00,
2013-10-07 06:30:00,44.0,18.8,30.41,NW,315,0.0,0.0,36,0.00,,---,0.00,VWS V14.01,2013-10-07 12:30:00,
2013-10-07 06:40:00,43.0,17.9,30.42,WNW,292,0.0,0.0,36,0.00,,---,0.00,VWS V14.01,2013-10-07 12:40:00,
2013-10-07 06:50:00,41.0,18.0,30.42,WNW,292,0.0,0.0,39,0.00,,---,0.00,VWS V14.01,2013-10-07 12:50:00,
2013-10-07 07:00:00,40.0,18.8,30.42,West,270,0.0,0.0,42,0.00,,---,0.00,VWS V14.01,2013-10-07 13:00:00,
2013-10-07 07:10:00,39.0,19.0,30.43,West,270,0.0,0.0,44,0.00,,---,0.00,VWS V14.01,2013-10-07 13:10:00,
2013-10-07 07:20:00,39.0,19.0,30.43,West,270,0.0,7.0,44,0.00,,---,0.00,VWS V14.01,2013-10-07 13:20:00,
2013-10-07 07:30:00,40.0,18.8,30.43,WNW,292,0.0,0.0,42,0.00,,---,0.00,VWS V14.01,2013-10-07 13:30:00,
2013-10-07 07:40:00,42.0,19.5,30.44,NW,315,0.0,0.0,40,0.00,,---,0.00,VWS V14.01,2013-10-07 13:40:00,
2013-10-07 07:50:00,45.0,20.3,30.43,NNW,337,0.0,0.0,37,0.00,,---,0.00,VWS V14.01,2013-10-07 13:50:00,
2013-10-07 08:00:00,47.0,20.8,30.42,NNW,337,0.0,0.0,35,0.00,,---,0.00,VWS V14.01,2013-10-07 14:00:00,
2013-10-07 08:10:00,50.0,21.3,30.41,NNE,22,0.0,0.0,32,0.00,,---,0.00,VWS V14.01,2013-10-07 14:10:00,
2013-10-07 08:20:00,52.0,20.8,30.40,NE,45,0.0,0.0,29,0.00,,---,0.00,VWS V14.01,2013-10-07 14:20:00,
2013-10-07 08:30:00,52.0,19.9,30.40,ENE,67,0.0,0.0,28,0.00,,---,0.00,VWS V14.01,2013-10-07 14:30:00,
2013-10-07 08:40:00,53.0,20.8,30.39,ENE,67,0.0,7.0,28,0.00,,---,0.00,VWS V14.01,2013-10-07 14:40:00,
2013-10-07 08:50:00,54.0,19.9,30.39,NE,45,0.0,0.0,26,0.00,,---,0.00,VWS V14.01,2013-10-07 14:50:00,
2013-10-07 09:00:00,54.0,19.9,30.39,NNE,22,0.0,8.0,26,0.00,,---,0.00,VWS V14.01,2013-10-07 15:00:00,
2013-10-07 09:10:00,55.0,20.8,30.39,North,360,8.0,8.0,26,0.00,,---,0.00,VWS V14.01,2013-10-07 15:10:00,
2013-10-07 09:20:00,55.0,20.8,30.39,NE,45,1.0,8.0,26,0.00,,---,0.00,VWS V14.01,2013-10-07 15:20:00,
2013-10-07 09:30:00,56.0,20.7,30.38,NE,45,2.0,6.0,25,0.00,,---,0.00,VWS V14.01,2013-10-07 15:30:00,
2013-10-07 09:40:00,56.0,20.7,30.38,NNE,22,0.0,7.0,25,0.00,,---,0.00,VWS V14.01,2013-10-07 15:40:00,
2013-10-07 09:50:00,56.0,20.7,30.38,ENE,67,4.0,8.0,25,0.00,,---,0.00,VWS V14.01,2013-10-07 15:50:00,
2013-10-07 10:00:00,57.0,21.5,30.37,East,90,6.0,9.0,25,0.00,,---,0.00,VWS V14.01,2013-10-07 16:00:00,
2013-10-07 10:10:00,57.0,20.6,30.37,ENE,67,5.0,9.0,24,0.00,,---,0.00,VWS V14.01,2013-10-07 16:10:00,
2013-10-07 10:20:00,57.0,20.6,30.37,ESE,112,4.0,8.0,24,0.00,,---,0.00,VWS V14.01,2013-10-07 16:20:00,
2013-10-07 10:30:00,58.0,21.4,30.37,ENE,67,0.0,8.0,24,0.00,,---,0.00,VWS V14.01,2013-10-07 16:30:00,
2013-10-07 10:40:00,59.0,21.3,30.37,NE,45,0.0,7.0,23,0.00,,---,0.00,VWS V14.01,2013-10-07 16:40:00,
2013-10-07 10:50:00,60.0,23.1,30.36,East,90,0.0,8.0,24,0.00,,---,0.00,VWS V14.01,2013-10-07 16:50:00,
2013-10-07 11:00:00,60.0,22.1,30.35,East,90,0.0,5.0,23,0.00,,---,0.00,VWS V14.01,2013-10-07 17:00:00,
2013-10-07 11:10:00,62.0,21.6,30.35,East,90,0.0,7.0,21,0.00,,---,0.00,VWS V14.01,2013-10-07 17:10:00,
2013-10-07 11:20:00,63.0,22.5,30.34,East,90,0.0,5.0,21,0.00,,---,0.00,VWS V14.01,2013-10-07 17:20:00,
2013-10-07 11:30:00,63.0,22.5,30.34,ESE,112,1.0,8.0,21,0.00,,---,0.00,VWS V14.01,2013-10-07 17:30:00,
2013-10-07 11:40:00,63.0,22.5,30.33,East,90,8.0,9.0,21,0.00,,---,0.00,VWS V14.01,2013-10-07 17:40:00,
2013-10-07 11:50:00,63.0,22.5,30.33,ESE,112,2.0,10.0,21,0.00,,---,0.00,VWS V14.01,2013-10-07 17:50:00,
2013-10-07 12:00:00,64.0,23.3,30.33,SE,135,0.0,8.0,21,0.00,,---,0.00,VWS V14.01,2013-10-07 18:00:00,
2013-10-07 12:10:00,65.0,24.1,30.33,SSE,157,0.0,8.0,21,0.00,,---,0.00,VWS V14.01,2013-10-07 18:10:00,
2013-10-07 12:20:00,65.0,23.0,30.33,SSW,202,0.0,6.0,20,0.00,,---,0.00,VWS V14.01,2013-10-07 18:20:00,
2013-10-07 12:30:00,66.0,22.6,30.32,East,90,4.0,6.0,19,0.00,,---,0.00,VWS V14.01,2013-10-07 18:30:00,
2013-10-07 12:40:00,67.0,23.4,30.31,SSE,157,0.0,8.0,19,0.00,,---,0.00,VWS V14.01,2013-10-07 18:40:00,
2013-10-07 12:50:00,67.0,23.4,30.31,SE,135,1.0,10.0,19,0.00,,---,0.00,VWS V14.01,2013-10-07 18:50:00,
2013-10-07 13:00:00,67.0,22.1,30.30,SE,135,0.0,7.0,18,0.00,,---,0.00,VWS V14.01,2013-10-07 19:00:00,
2013-10-07 13:10:00,68.0,23.0,30.29,South,180,6.0,9.0,18,0.00,,---,0.00,VWS V14.01,2013-10-07 19:10:00,
2013-10-07 13:20:00,68.0,23.0,30.29,SSE,157,0.0,9.0,18,0.00,,---,0.00,VWS V14.01,2013-10-07 19:20:00,
2013-10-07 13:30:00,69.0,23.8,30.28,SSE,157,6.0,11.0,18,0.00,,---,0.00,VWS V14.01,2013-10-07 19:30:00,
2013-10-07 13:40:00,69.0,22.4,30.28,SSW,202,5.0,10.0,17,0.00,,---,0.00,VWS V14.01,2013-10-07 19:40:00,
2013-10-07 14:00:00,69.0,22.4,30.26,SSE,157,0.0,8.0,17,0.00,,---,0.00,VWS V14.01,2013-10-07 20:00:00,
2013-10-07 14:10:00,70.0,24.6,30.26,SE,135,0.0,10.0,18,0.00,,---,0.00,VWS V14.01,2013-10-07 20:10:00,
2013-10-07 14:20:00,71.0,24.0,30.25,SE,135,0.0,9.0,17,0.00,,---,0.00,VWS V14.01,2013-10-07 20:20:00,
2013-10-07 14:30:00,71.0,22.6,30.24,South,180,0.0,11.0,16,0.00,,---,0.00,VWS V14.01,2013-10-07 20:30:00,
2013-10-07 14:40:00,71.0,24.0,30.24,SE,135,4.0,10.0,17,0.00,,---,0.00,VWS V14.01,2013-10-07 20:40:00,
2013-10-07 14:50:00,71.0,21.1,30.23,SE,135,2.0,10.0,15,0.00,,---,0.00,VWS V14.01,2013-10-07 20:50:00,
2013-10-07 15:00:00,72.0,23.4,30.22,SSW,202,0.0,10.0,16,0.00,,---,0.00,VWS V14.01,2013-10-07 21:00:00,
2013-10-07 15:10:00,71.0,19.4,30.22,SSW,202,4.0,9.0,14,0.00,,---,0.00,VWS V14.01,2013-10-07 21:10:00,
2013-10-07 15:20:00,72.0,20.2,30.22,SE,135,5.0,8.0,14,0.00,,---,0.00,VWS V14.01,2013-10-07 21:20:00,
2013-10-07 15:30:00,72.0,21.9,30.21,South,180,1.0,10.0,15,0.00,,---,0.00,VWS V14.01,2013-10-07 21:30:00,
2013-10-07 15:40:00,72.0,18.5,30.21,South,180,3.0,9.0,13,0.00,,---,0.00,VWS V14.01,2013-10-07 21:40:00,
2013-10-07 15:50:00,72.0,21.9,30.21,SSE,157,0.0,9.0,15,0.00,,---,0.00,VWS V14.01,2013-10-07 21:50:00,
2013-10-07 16:00:00,72.0,21.9,30.20,SSW,202,6.0,10.0,15,0.00,,---,0.00,VWS V14.01,2013-10-07 22:00:00,
2013-10-07 16:10:00,72.0,23.4,30.20,SE,135,4.0,10.0,16,0.00,,---,0.00,VWS V14.01,2013-10-07 22:10:00,
2013-10-07 16:20:00,71.0,21.1,30.20,SE,135,0.0,11.0,15,0.00,,---,0.00,VWS V14.01,2013-10-07 22:20:00,
2013-10-07 16:30:00,72.0,21.9,30.19,SW,225,0.0,8.0,15,0.00,,---,0.00,VWS V14.01,2013-10-07 22:30:00,
2013-10-07 16:40:00,72.0,21.9,30.19,SE,135,0.0,8.0,15,0.00,,---,0.00,VWS V14.01,2013-10-07 22:40:00,
2013-10-07 16:50:00,72.0,20.2,30.19,South,180,0.0,10.0,14,0.00,,---,0.00,VWS V14.01,2013-10-07 22:50:00,
2013-10-07 17:00:00,73.0,22.7,30.19,SE,135,0.0,0.0,15,0.00,,---,0.00,VWS V14.01,2013-10-07 23:00:00,
2013-10-07 17:20:00,72.0,21.9,30.18,SSE,157,0.0,0.0,15,0.00,,---,0.00,VWS V14.01,2013-10-07 23:20:00,
2013-10-07 17:30:00,71.0,22.6,30.18,SE,135,0.0,0.0,16,0.00,,---,0.00,VWS V14.01,2013-10-07 23:30:00,
2013-10-07 17:40:00,71.0,22.6,30.18,SE,135,0.0,0.0,16,0.00,,---,0.00,VWS V14.01,2013-10-07 23:40:00,
2013-10-07 17:50:00,71.0,21.1,30.18,North,360,0.0,0.0,15,0.00,,---,0.00,VWS V14.01,2013-10-07 23:50:00,
2013-10-07 18:00:00,71.0,22.6,30.18,South,180,0.0,0.0,16,0.00,,---,0.00,VWS V14.01,2013-10-08 00:00:00,
2013-10-07 18:10:00,70.0,21.8,30.19,SE,135,0.0,0.0,16,0.00,,---,0.00,VWS V14.01,2013-10-08 00:10:00,
2013-10-07 18:20:00,69.0,22.4,30.19,SSE,157,0.0,0.0,17,0.00,,---,0.00,VWS V14.01,2013-10-08 00:20:00,
2013-10-07 18:30:00,67.0,22.1,30.20,South,180,0.0,0.0,18,0.00,,---,0.00,VWS V14.01,2013-10-08 00:30:00,
2013-10-07 18:40:00,66.0,23.8,30.21,South,180,0.0,0.0,20,0.00,,---,0.00,VWS V14.01,2013-10-08 00:40:00,
2013-10-07 18:50:00,65.0,23.0,30.22,SSW,202,0.0,0.0,20,0.00,,---,0.00,VWS V14.01,2013-10-08 00:50:00,
2013-10-07 19:00:00,64.0,22.1,30.22,SW,225,0.0,0.0,20,0.00,,---,0.00,VWS V14.01,2013-10-08 01:00:00,
2013-10-07 19:10:00,64.0,23.3,30.23,SW,225,0.0,0.0,21,0.00,,---,0.00,VWS V14.01,2013-10-08 01:10:00,
2013-10-07 19:20:00,63.0,22.5,30.23,SW,225,0.0,0.0,21,0.00,,---,0.00,VWS V14.01,2013-10-08 01:20:00,
2013-10-07 19:30:00,62.0,21.6,30.24,WSW,247,0.0,0.0,21,0.00,,---,0.00,VWS V14.01,2013-10-08 01:30:00,
2013-10-07 19:40:00,61.0,23.0,30.24,WSW,247,0.0,0.0,23,0.00,,---,0.00,VWS V14.01,2013-10-08 01:40:00,
2013-10-07 19:50:00,60.0,22.1,30.24,WSW,247,0.0,0.0,23,0.00,,---,0.00,VWS V14.01,2013-10-08 01:50:00,
2013-10-07 20:00:00,60.0,23.1,30.24,WSW,247,0.0,0.0,24,0.00,,---,0.00,VWS V14.01,2013-10-08 02:00:00,
2013-10-07 20:10:00,59.0,22.3,30.25,WSW,247,0.0,0.0,24,0.00,,---,0.00,VWS V14.01,2013-10-08 02:10:00,
2013-10-07 20:20:00,59.0,22.3,30.26,SW,225,0.0,0.0,24,0.00,,---,0.00,VWS V14.01,2013-10-08 02:20:00,
2013-10-07 20:30:00,59.0,22.3,30.26,SW,225,0.0,0.0,24,0.00,,---,0.00,VWS V14.01,2013-10-08 02:30:00,
2013-10-07 20:40:00,59.0,23.2,30.26,SW,225,0.0,0.0,25,0.00,,---,0.00,VWS V14.01,2013-10-08 02:40:00,
2013-10-07 20:50:00,59.0,23.2,30.26,SW,225,0.0,0.0,25,0.00,,---,0.00,VWS V14.01,2013-10-08 02:50:00,
2013-10-07 21:00:00,58.0,22.4,30.26,SW,225,0.0,0.0,25,0.00,,---,0.00,VWS V14.01,2013-10-08 03:00:00,
2013-10-07 21:10:00,58.0,23.3,30.26,WSW,247,0.0,0.0,26,0.00,,---,0.00,VWS V14.01,2013-10-08 03:10:00,
2013-10-07 21:20:00,58.0,23.3,30.26,WSW,247,0.0,0.0,26,0.00,,---,0.00,VWS V14.01,2013-10-08 03:20:00,
2013-10-07 21:30:00,57.0,23.4,30.27,WSW,247,0.0,0.0,27,0.00,,---,0.00,VWS V14.01,2013-10-08 03:30:00,
2013-10-07 21:40:00,57.0,24.2,30.27,WSW,247,0.0,0.0,28,0.00,,---,0.00,VWS V14.01,2013-10-08 03:40:00,
2013-10-07 21:50:00,56.0,23.4,30.28,WSW,247,0.0,0.0,28,0.00,,---,0.00,VWS V14.01,2013-10-08 03:50:00,
2013-10-07 22:00:00,55.0,23.4,30.28,WSW,247,0.0,0.0,29,0.00,,---,0.00,VWS V14.01,2013-10-08 04:00:00,
2013-10-07 22:10:00,55.0,23.4,30.28,West,270,0.0,0.0,29,0.00,,---,0.00,VWS V14.01,2013-10-08 04:10:00,
2013-10-07 22:20:00,54.0,23.3,30.28,North,360,0.0,0.0,30,0.00,,---,0.00,VWS V14.01,2013-10-08 04:20:00,
2013-10-07 22:30:00,54.0,24.1,30.28,West,270,0.0,0.0,31,0.00,,---,0.00,VWS V14.01,2013-10-08 04:30:00,
2013-10-07 22:40:00,54.0,24.1,30.29,West,270,0.0,0.0,31,0.00,,---,0.00,VWS V14.01,2013-10-08 04:40:00,
2013-10-07 22:50:00,53.0,23.2,30.28,West,270,0.0,0.0,31,0.00,,---,0.00,VWS V14.01,2013-10-08 04:50:00,
2013-10-07 23:00:00,53.0,24.7,30.28,West,270,0.0,0.0,33,0.00,,---,0.00,VWS V14.01,2013-10-08 05:00:00,
2013-10-07 23:10:00,52.0,23.8,30.28,West,270,0.0,0.0,33,0.00,,---,0.00,VWS V14.01,2013-10-08 05:10:00,
2013-10-07 23:20:00,52.0,23.8,30.28,West,270,0.0,0.0,33,0.00,,---,0.00,VWS V14.01,2013-10-08 05:20:00,
2013-10-07 23:30:00,53.0,24.7,30.28,West,270,0.0,0.0,33,0.00,,---,0.00,VWS V14.01,2013-10-08 05:30:00,
2013-10-07 23:40:00,52.0,23.8,30.28,West,270,0.0,0.0,33,0.00,,---,0.00,VWS V14.01,2013-10-08 05:40:00,
2013-10-07 23:50:00,52.0,23.8,30.27,West,270,0.0,0.0,33,0.00,,---,0.00,VWS V14.01,2013-10-08 05:50:00,